GW2867 Weather Reports


time (UTC)temp
C
wind
direction
speed
KPH
gust
KPH
rain 1hr
cm
rain 24hr
cm
rain mn
cm
humidity
%
barometer
mb
20260510201203 22 256 3.2 8.0 0.00 0.13 0.00 52 1008.8
20260510200704 22 229 3.2 4.8 0.00 0.13 0.00 50 1008.8
20260510200204 23 259 1.6 4.8 0.00 0.15 0.00 49 1008.8
20260510195703 24 302 3.2 8.0 0.00 0.15 0.00 46 1008.8
20260510194703 25 344 3.2 8.0 0.00 0.15 0.00 46 1008.9
20260510194203 25 35 3.2 11.3 0.00 0.18 0.00 45 1008.9
20260510193704 25 162 4.8 11.3 0.00 0.18 0.00 52 1009.1
20260510193204 25 347 1.6 4.8 0.00 0.18 0.00 51 1009.2
20260510192703 23 29 3.2 8.0 0.00 0.18 0.00 57 1009.3
20260510192205 22 57 4.8 9.7 0.00 0.18 0.00 58 1009.4
20260510191703 22 105 4.8 11.3 0.00 0.20 0.00 59 1009.5
20260510191203 21 4 4.8 9.7 0.00 0.20 0.00 62 1009.5
20260510190703 21 297 3.2 11.3 0.00 0.20 0.00 67 1009.4
20260510190203 20 258 0.0 1.6 0.00 0.20 0.00 68 1009.4
20260510185704 20 215 3.2 8.0 0.00 0.20 0.00 69 1009.4
20260510185203 20 272 1.6 11.3 0.00 0.20 0.00 69 1009.4
20260510184703 20 69 1.6 4.8 0.00 0.20 0.00 68 1009.4
20260510184203 20 166 1.6 11.3 0.00 0.20 0.00 67 1009.2
20260510183703 21 229 3.2 4.8 0.00 0.20 0.00 67 1009.4
20260510183204 21 170 3.2 8.0 0.00 0.20 0.00 67 1009.4
20260510182203 20 84 0.0 8.0 0.00 0.20 0.00 70 1009.3
20260510181704 20 116 1.6 4.8 0.00 0.20 0.00 69 1009.4
20260510175703 21 212 1.6 8.0 0.00 0.20 0.00 69 1009.4
20260510175204 20 180 3.2 4.8 0.00 0.20 0.00 71 1009.5
20260510174704 19 238 3.2 4.8 0.00 0.20 0.00 71 1009.6
20260510174204 19 248 0.0 3.2 0.00 0.20 0.00 72 1009.7
20260510173704 19 308 1.6 3.2 0.00 0.20 0.00 71 1009.5
20260510173204 19 251 3.2 11.3 0.00 0.23 0.00 70 1009.4
20260510172704 20 222 6.4 11.3 0.00 0.23 0.00 69 1009.5
20260510172205 20 246 3.2 9.7 0.00 0.23 0.00 68 1009.4
20260510171703 20 251 3.2 9.7 0.00 0.23 0.00 67 1009.4
20260510171203 20 241 3.2 4.8 0.00 0.23 0.00 67 1009.4
20260510170704 20 269 3.2 9.7 0.00 0.25 0.00 68 1009.5
20260510170205 20 267 3.2 9.7 0.00 0.25 0.00 70 1009.6
20260510165703 20 42 3.2 8.0 0.00 0.25 0.00 71 1009.6
20260510165205 19 279 1.6 11.3 0.00 0.25 0.00 72 1009.8
20260510164704 19 205 1.6 9.7 0.00 0.28 0.00 73 1009.9
20260510163204 19 264 3.2 8.0 0.00 0.28 0.00 73 1010.1
20260510162703 19 240 1.6 11.3 0.00 0.28 0.00 74 1010.0
20260510162203 18 139 3.2 11.3 0.00 0.28 0.00 74 1010.2
20260510161204 19 273 3.2 9.7 0.00 0.30 0.00 74 1010.2
20260510160704 19 262 1.6 4.8 0.00 0.30 0.00 74 1010.2
20260510155703 18 275 3.2 9.7 0.00 0.30 0.00 77 1010.3
20260510155204 18 199 3.2 9.7 0.00 0.30 0.00 78 1010.4
20260510154704 18 208 3.2 8.0 0.00 0.30 0.00 79 1010.5
20260510154204 17 259 3.2 8.0 0.00 0.30 0.00 80 1010.6
20260510153704 17 264 3.2 9.7 0.00 0.30 0.00 81 1010.6
20260510153204 17 144 3.2 9.7 0.00 0.30 0.00 80 1010.6
20260510152204 16 181 3.2 12.9 0.00 0.33 0.00 82 1010.7
20260510151703 16 196 4.8 11.3 0.00 0.33 0.00 82 1010.8
20260510151203 16 174 3.2 11.3 0.00 0.33 0.00 82 1010.9
20260510150704 16 122 3.2 12.9 0.00 0.33 0.00 84 1010.9
20260510145704 16 227 1.6 8.0 0.00 0.33 0.00 85 1010.9
20260510144703 15 203 3.2 9.7 0.00 0.33 0.00 86 1010.7
20260510144203 15 187 3.2 12.9 0.00 0.33 0.00 87 1010.8
20260510143703 15 217 1.6 8.0 0.00 0.33 0.00 87 1010.8
20260510143204 15 179 1.6 4.8 0.00 0.33 0.00 88 1010.9
20260510142704 15 153 3.2 9.7 0.00 0.33 0.00 88 1010.9
20260510142203 15 200 3.2 8.0 0.00 0.33 0.00 89 1010.9
20260510141203 14 199 0.0 3.2 0.00 0.36 0.00 90 1010.8
20260510140704 14 119 0.0 4.8 0.00 0.36 0.00 90 1010.9
20260510140203 14 139 0.0 1.6 0.00 0.36 0.00 90 1011.0
20260510134703 13 140 0.0 0.0 0.00 0.38 0.00 92 1010.9
20260510134203 13 140 0.0 0.0 0.00 0.38 0.00 92 1010.9
20260510133704 13 140 0.0 0.0 0.00 0.38 0.00 92 1011.0
20260510133204 13 140 0.0 1.6 0.00 0.38 0.00 92 1011.0
20260510132704 13 140 0.0 0.0 0.00 0.38 0.00 92 1011.1
20260510132203 13 140 0.0 0.0 0.00 0.38 0.00 92 1011.1
20260510131703 13 140 0.0 1.6 0.00 0.38 0.00 93 1011.0
20260510131203 13 220 0.0 1.6 0.00 0.38 0.00 93 1010.9
20260510130704 13 160 0.0 0.0 0.00 0.38 0.00 94 1010.9
20260510130203 13 160 0.0 0.0 0.00 0.41 0.00 94 1011.0
20260510125703 12 160 0.0 0.0 0.00 0.41 0.00 94 1010.9
20260510124703 12 160 0.0 0.0 0.00 0.41 0.00 94 1010.9
20260510124204 12 160 0.0 0.0 0.00 0.43 0.00 94 1010.7
20260510123704 12 160 0.0 0.0 0.00 0.43 0.00 94 1010.8
20260510122203 12 160 0.0 0.0 0.00 0.46 0.00 94 1010.7
20260510121704 12 5 0.0 1.6 0.00 0.46 0.00 94 1010.7
20260510121204 12 352 0.0 0.0 0.00 0.46 0.00 95 1010.8
20260510120703 12 352 0.0 0.0 0.00 0.46 0.00 95 1010.8
20260510120203 12 352 0.0 0.0 0.00 0.46 0.00 95 1010.7
20260510115703 12 352 0.0 0.0 0.00 0.46 0.00 95 1010.7
20260510115203 12 352 0.0 0.0 0.00 0.46 0.00 95 1010.9
20260510114703 12 352 0.0 0.0 0.00 0.46 0.00 95 1010.9
20260510114203 12 352 0.0 0.0 0.00 0.46 0.00 95 1010.9
20260510113703 12 352 0.0 0.0 0.00 0.46 0.00 95 1010.8
20260510113204 12 352 0.0 0.0 0.00 0.46 0.00 95 1010.9
20260510112704 12 352 0.0 0.0 0.00 0.46 0.00 95 1010.8
20260510112204 12 352 0.0 0.0 0.00 0.46 0.00 95 1010.8
20260510111703 12 352 0.0 0.0 0.00 0.46 0.00 95 1010.7
20260510111203 11 352 0.0 0.0 0.00 0.46 0.00 95 1010.6
20260510110704 11 352 0.0 0.0 0.00 0.46 0.00 95 1010.7
20260510105703 11 352 0.0 0.0 0.00 0.46 0.00 95 1010.6
20260510105203 11 352 0.0 0.0 0.00 0.46 0.00 95 1010.6
20260510104703 11 352 0.0 0.0 0.00 0.48 0.00 95 1010.6
20260510104204 11 352 0.0 0.0 0.00 0.48 0.00 95 1010.6
20260510103204 11 352 0.0 0.0 0.00 0.51 0.00 95 1010.3
20260510102203 11 352 0.0 0.0 0.00 0.51 0.00 95 1010.2
20260510101703 11 352 0.0 0.0 0.00 0.53 0.00 95 1010.2
20260510101204 11 352 0.0 0.0 0.00 0.53 0.00 95 1010.2
20260510100204 11 352 0.0 0.0 0.00 0.56 0.00 95 1010.2
20260510095703 11 352 0.0 0.0 0.00 0.58 0.00 95 1010.1
20260510095204 11 352 0.0 0.0 0.00 0.61 0.00 95 1009.7
20260510094704 11 352 0.0 0.0 0.00 0.61 0.00 95 1009.7
20260510094203 11 352 0.0 0.0 0.00 0.61 0.00 95 1009.6
20260510093703 11 352 0.0 0.0 0.00 0.61 0.00 95 1009.6
20260510092704 11 352 0.0 0.0 0.00 0.64 0.00 95 1009.6
20260510092204 11 352 0.0 0.0 0.00 0.66 0.00 95 1009.6
20260510091704 11 352 0.0 0.0 0.00 0.66 0.00 95 1009.8
20260510090703 10 352 0.0 0.0 0.00 0.69 0.00 95 1009.7
20260510090203 10 352 0.0 0.0 0.00 0.69 0.00 95 1009.7
20260510085704 10 352 0.0 0.0 0.00 0.69 0.00 95 1009.7
20260510085204 11 352 0.0 0.0 0.00 0.69 0.00 95 1009.6
20260510084704 11 352 0.0 0.0 0.00 0.71 0.00 95 1009.9
20260510084204 11 352 0.0 0.0 0.00 0.71 0.00 95 1010.0
20260510083204 10 352 0.0 0.0 0.00 0.71 0.00 95 1010.0
20260510082703 11 352 0.0 0.0 0.00 0.71 0.00 95 1010.0
20260510082204 11 352 0.0 0.0 0.00 0.71 0.00 95 1009.9
20260510081704 10 352 0.0 0.0 0.00 0.71 0.00 95 1010.0
20260510081204 10 352 0.0 0.0 0.00 0.71 0.00 95 1010.1
20260510080203 10 352 0.0 0.0 0.00 0.71 0.00 95 1010.2
20260510075703 10 352 0.0 0.0 0.00 0.71 0.00 95 1010.2
20260510075203 10 352 0.0 0.0 0.00 0.71 0.00 94 1010.2
20260510073704 10 352 0.0 0.0 0.00 0.71 0.00 94 1010.2
20260510073204 10 352 0.0 0.0 0.00 0.71 0.00 94 1010.1
20260510072704 10 352 0.0 0.0 0.00 0.71 0.00 94 1010.0
20260510072203 10 352 0.0 0.0 0.00 0.71 0.00 94 1009.9
20260510071703 10 352 0.0 0.0 0.00 0.71 0.00 94 1009.9
20260510071203 10 352 0.0 0.0 0.00 0.71 0.00 94 1009.7
20260510070704 10 352 0.0 0.0 0.00 0.71 0.00 94 1009.6
20260510070204 10 352 0.0 0.0 0.00 0.71 0.00 94 1009.7
20260510064704 10 352 0.0 0.0 0.00 0.71 0.00 94 1009.6
20260510064205 10 352 0.0 0.0 0.00 0.71 0.00 94 1009.7
20260510063203 10 352 0.0 0.0 0.00 0.71 0.00 94 1009.7
20260510062703 10 352 0.0 0.0 0.00 0.71 0.00 94 1009.7
20260510062203 10 352 0.0 0.0 0.00 0.71 0.00 94 1009.6
20260510061704 10 352 0.0 0.0 0.00 0.71 0.00 94 1009.7
20260510061204 10 352 0.0 0.0 0.00 0.71 0.00 94 1009.5
20260510060703 10 352 0.0 0.0 0.00 0.71 0.00 94 1009.7
20260510060204 10 352 0.0 0.0 0.00 0.71 0.00 95 1009.6
20260510055703 10 352 0.0 0.0 0.00 0.71 0.00 95 1009.6
20260510054704 10 352 0.0 0.0 0.00 0.71 0.00 94 1009.3
20260510054204 11 352 0.0 0.0 0.00 0.71 0.00 94 1009.4
20260510053704 11 352 0.0 0.0 0.00 0.71 0.00 94 1009.6
20260510053204 11 352 0.0 0.0 0.00 0.71 0.00 94 1009.7
20260510052704 11 352 0.0 0.0 0.00 0.71 0.00 95 1009.7
20260510052203 11 352 0.0 0.0 0.00 0.71 0.00 95 1009.7
20260510051704 11 352 0.0 0.0 0.00 0.71 0.00 95 1009.8
20260510051204 11 352 0.0 0.0 0.00 0.71 0.00 95 1009.8
20260510050704 11 352 0.0 0.0 0.00 0.71 0.00 95 1009.6
20260510050204 11 352 0.0 0.0 0.00 0.71 0.00 95 1009.6
20260510045703 11 352 0.0 0.0 0.00 0.71 0.00 95 1009.6
20260510045203 10 352 0.0 0.0 0.00 0.71 0.00 95 1009.5
20260510044704 11 352 0.0 0.0 0.00 0.71 0.00 95 1009.6
20260510044204 11 352 0.0 0.0 0.00 0.71 0.00 95 1009.5
20260510043703 11 352 0.0 0.0 0.00 0.71 0.00 95 1009.6
20260510043203 11 352 0.0 0.0 0.00 0.71 0.00 95 1009.7
20260510042704 11 352 0.0 0.0 0.00 0.71 0.00 95 1009.7
20260510042204 11 352 0.0 0.0 0.00 0.71 0.00 95 1009.7
20260510040704 11 352 0.0 0.0 0.00 0.71 0.00 95 1009.7
20260510040203 11 352 0.0 0.0 0.00 0.71 0.00 95 1009.8
20260510035704 11 352 0.0 0.0 0.00 0.71 0.71 95 1009.7
20260510035204 11 352 0.0 0.0 0.00 0.71 0.71 95 1009.6
20260510034203 11 352 0.0 0.0 0.00 0.71 0.71 95 1009.6
20260510033703 11 352 0.0 0.0 0.00 0.71 0.71 95 1009.7
20260510033203 11 352 0.0 0.0 0.00 0.71 0.71 95 1009.5
20260510032704 11 352 0.0 0.0 0.00 0.71 0.71 95 1009.6
20260510032204 11 352 0.0 0.0 0.00 0.71 0.71 95 1009.8
20260510031203 11 352 0.0 0.0 0.00 0.71 0.71 95 1009.8
20260510030704 11 352 0.0 0.0 0.00 0.71 0.71 95 1009.8
20260510030203 11 352 0.0 0.0 0.00 0.71 0.71 95 1009.8
20260510025703 11 352 0.0 0.0 0.00 0.71 0.71 95 1009.7
20260510025204 11 352 0.0 0.0 0.00 0.71 0.71 95 1009.7
20260510024705 11 352 0.0 0.0 0.00 0.71 0.71 95 1009.8
20260510023703 11 352 0.0 0.0 0.00 0.71 0.71 95 1009.6
20260510022704 11 352 0.0 0.0 0.00 0.71 0.71 95 1009.6
20260510022204 11 352 0.0 0.0 0.00 0.71 0.71 95 1009.6
20260510021203 11 352 0.0 0.0 0.00 0.71 0.71 94 1009.5
20260510020704 11 352 0.0 0.0 0.00 0.71 0.71 94 1009.6
20260510020203 11 352 0.0 0.0 0.00 0.71 0.71 94 1009.9
20260510015703 11 352 0.0 0.0 0.00 0.71 0.71 94 1010.1
20260510015203 11 352 0.0 0.0 0.00 0.71 0.71 94 1010.2
20260510014704 11 352 0.0 0.0 0.00 0.71 0.71 94 1010.2
20260510014204 11 352 0.0 0.0 0.00 0.71 0.71 94 1010.2
20260510013703 11 352 0.0 0.0 0.00 0.71 0.71 94 1010.2
20260510013203 11 352 0.0 0.0 0.00 0.71 0.71 94 1010.2
20260510012704 11 352 0.0 0.0 0.00 0.71 0.71 94 1010.3
20260510012204 11 352 0.0 0.0 0.00 0.71 0.71 94 1010.2
20260510011203 11 352 0.0 0.0 0.00 0.71 0.71 94 1010.0
20260510010205 11 352 0.0 0.0 0.00 0.71 0.71 94 1009.7
20260510005703 11 352 0.0 0.0 0.00 0.71 0.71 94 1009.5
20260510005203 11 352 0.0 0.0 0.00 0.71 0.71 94 1009.5
20260510004704 11 352 0.0 0.0 0.00 0.71 0.71 94 1009.3
20260510003703 11 352 0.0 0.0 0.00 0.71 0.71 94 1009.5
20260510003204 11 352 0.0 0.0 0.00 0.71 0.71 94 1009.3
20260510002703 11 352 0.0 0.0 0.00 0.71 0.71 94 1009.3
20260510001703 11 352 0.0 0.0 0.00 0.71 0.71 94 1009.3
20260510001204 11 352 0.0 0.0 0.00 0.71 0.71 94 1009.3
20260510000704 11 352 0.0 0.0 0.00 0.71 0.71 94 1009.3
20260510000204 11 352 0.0 0.0 0.00 0.71 0.71 94 1009.3
20260509235204 11 352 0.0 0.0 0.00 0.71 0.71 94 1009.3
20260509234204 11 352 0.0 0.0 0.00 0.71 0.71 93 1009.3
20260509233703 11 352 0.0 0.0 0.00 0.71 0.71 93 1009.4
20260509233203 11 352 0.0 0.0 0.00 0.71 0.71 93 1009.5
20260509232204 11 352 0.0 0.0 0.00 0.71 0.71 93 1009.6
20260509231704 11 352 0.0 0.0 0.00 0.71 0.71 93 1009.4
20260509230703 11 352 0.0 0.0 0.00 0.71 0.71 93 1009.3
20260509230205 11 352 0.0 0.0 0.00 0.71 0.71 93 1009.2
20260509225703 11 352 0.0 0.0 0.00 0.71 0.71 93 1009.3
20260509225203 11 352 0.0 0.0 0.00 0.71 0.71 93 1009.3
20260509224704 11 352 0.0 0.0 0.00 0.71 0.71 93 1009.3
20260509224204 11 352 0.0 0.0 0.00 0.71 0.71 93 1009.3
20260509223704 11 352 0.0 0.0 0.00 0.71 0.71 93 1009.2
20260509223203 11 352 0.0 0.0 0.00 0.71 0.71 93 1009.2
20260509222704 11 352 0.0 0.0 0.00 0.71 0.71 93 1009.2
20260509222204 11 352 0.0 0.0 0.00 0.71 0.71 93 1009.3
20260509221704 11 352 0.0 0.0 0.03 0.71 0.71 93 1009.3
20260509221204 11 352 0.0 0.0 0.03 0.71 0.71 93 1009.3
20260509220703 11 352 0.0 0.0 0.03 0.71 0.71 92 1009.3
20260509220204 11 352 0.0 0.0 0.05 0.71 0.71 92 1009.4
20260509215203 10 352 0.0 0.0 0.05 0.71 0.71 92 1009.3
20260509214703 10 352 0.0 0.0 0.05 0.71 0.71 92 1009.4
20260509213704 11 352 0.0 0.0 0.08 0.71 0.71 93 1009.4
20260509213204 10 352 0.0 0.0 0.10 0.71 0.71 93 1009.4
20260509212203 10 352 0.0 0.0 0.10 0.71 0.71 92 1009.5
20260509211704 11 352 0.0 0.0 0.10 0.69 0.69 92 1009.5
20260509211204 11 352 0.0 0.0 0.10 0.69 0.69 92 1009.6
20260509210704 11 352 0.0 0.0 0.10 0.69 0.69 92 1009.6
20260509210203 11 352 0.0 0.0 0.10 0.66 0.66 92 1009.7
20260509205703 11 352 0.0 0.0 0.10 0.66 0.66 92 1009.7
20260509205204 11 352 0.0 0.0 0.10 0.66 0.66 92 1009.8
20260509204704 11 352 0.0 0.0 0.10 0.66 0.66 92 1010.0
20260509204203 10 352 0.0 0.0 0.10 0.64 0.64 92 1010.0
20260509203703 11 352 0.0 0.0 0.10 0.64 0.64 92 1010.0
20260509203203 11 352 0.0 0.0 0.08 0.61 0.61 92 1010.1
20260509202704 11 352 0.0 0.0 0.08 0.61 0.61 92 1010.2